Weather History for Alexandria, Egypt

Change the Weather History Date:

Tuesday, October 11, 2011

  Actual Average Record
Temperature  
Mean Temperature 72 °F -  
Max Temperature 79 °F 76 °F 87 °F (1998)
Min Temperature 64 °F 61 °F 60 °F (2007)
Cooling Degree Days 8    
Growing Degree Days 22 (Base 50)    
Moisture  
Dew Point 54 °F    
Average Humidity 50    
Maximum Humidity 83    
Minimum Humidity 22    
Precipitation  
Precipitation 0.00 in 0.02 in - ()
Sea Level Pressure  
Sea Level Pressure 29.90 in    
Wind  
Wind Speed 9 mph ()    
Max Wind Speed 17 mph    
Max Gust Speed -    
Visibility 4.2 miles    
Events      
Averages and records for this station are not official NWS values.
T = Trace of Precipitation, MM = Missing Value Source: Averaged Metar Reports

Daily Weather History Graph

Daily Weather History Graph

Search for Another Location

Airport:

Trip Planner

Search our weather history database for the weather conditions in past years. The results will help you decide how hot, cold, wet, or windy it might be!

Date:

Astronomy

Oct. 11, 2011 Rise Set
Actual Time 5:59 AM EET 5:33 PM EET
Civil Twilight 5:35 AM EET 5:58 PM EET
Nautical Twilight 5:07 AM EET 6:26 PM EET
Astronomical Twilight 4:39 AM EET 6:54 PM EET
Moon 4:58 PM EET (10/11) 5:18 AM EET (10/11)
Length of Visible Light 12h 22m
Length of Day
11h 33m
Full, 100% of the Moon is Illuminated
Oct 11
Full
Oct 12
Full
Oct 20
Last Quarter
Oct 26
New
Nov 2
First Quarter

Hourly Weather History & Observations

Time (EET) Temp. Dew Point Humidity Pressure Visibility Wind Dir Wind Speed Gust Speed Precip Events Conditions
12:00 AM 77.0 °F 48.2 °F 36% 29.86 in - NW 9.2 mph - N/A   Clear
1:00 AM 77.0 °F 66.2 °F 69% 29.86 in - NW 6.9 mph - N/A   Clear
2:00 AM 77 °F 64 °F 56% 29.86 in 6 mi WNW 5.8 mph - -   Scattered Clouds
2:00 AM 77.0 °F 64.4 °F 65% 29.86 in 6.2 mi WNW 5.8 mph - N/A   Partly Cloudy
3:00 AM 75.2 °F 64.4 °F 69% 29.86 in 6.2 mi West 4.6 mph - N/A   Scattered Clouds
4:00 AM 73.4 °F 64.4 °F 73% 29.86 in 6.2 mi SW 4.6 mph - N/A   Scattered Clouds
5:00 AM 71.6 °F 66.2 °F 83% 29.86 in 6.2 mi South 4.6 mph - N/A   Scattered Clouds
6:00 AM 71.6 °F 64.4 °F 78% 29.86 in 6.2 mi SW 9.2 mph - N/A   Scattered Clouds
7:00 AM 73.4 °F 62.6 °F 69% 29.86 in 1.9 mi SW 6.9 mph - N/A   Haze
8:00 AM 75 °F 56 °F 42% 29.91 in 2 mi West 16.1 mph - -   Blowing Sand
8:00 AM 75.2 °F 57.2 °F 53% 29.89 in 1.9 mi West 16.1 mph - N/A   Sand
9:00 AM 75.2 °F 55.4 °F 50% 29.92 in 1.9 mi WSW 13.8 mph - N/A   Sand
10:00 AM 77.0 °F 50.0 °F 39% 29.92 in 3.7 mi WSW 15.0 mph - N/A   Unknown
11:00 AM 77.0 °F 48.2 °F 36% 29.92 in 3.7 mi WSW 15.0 mph - N/A   Unknown
12:00 PM 78.8 °F 42.8 °F 28% 29.89 in 3.7 mi SW 15.0 mph - N/A   Unknown
1:00 PM 78.8 °F 46.4 °F 32% 29.89 in 3.7 mi West 17.3 mph - N/A   Unknown
2:00 PM 78 °F 46 °F 22% 29.89 in 4 mi West 17.3 mph - -   Blowing Sand
2:00 PM 78.8 °F 46.4 °F 32% 29.89 in 3.7 mi West 17.3 mph - N/A   Unknown
3:00 PM 78.8 °F 46.4 °F 32% 29.89 in 3.7 mi West 16.1 mph - N/A   Unknown
4:00 PM 77.0 °F 48.2 °F 36% 29.89 in 3.7 mi WSW 12.7 mph - N/A   Unknown
5:00 PM 75.2 °F 48.2 °F 38% 29.89 in 3.7 mi West 12.7 mph - N/A   Unknown
6:00 PM 73.4 °F 50.0 °F 44% 29.89 in 3.7 mi West 10.4 mph - N/A   Unknown
7:00 PM 73.4 °F 53.6 °F 50% 29.92 in - West 6.9 mph - N/A   Clear
8:00 PM 73 °F 57 °F 46% 29.93 in 6 mi West 6.9 mph - -  
8:00 PM 73.4 °F 57.2 °F 57% 29.92 in - West 6.9 mph - N/A   Clear
9:00 PM 69.8 °F 35.6 °F 28% 29.95 in - South 4.6 mph - N/A   Clear
10:00 PM 66.2 °F 53.6 °F 64% 29.98 in - South 4.6 mph - N/A   Clear
11:00 PM 64.4 °F 53.6 °F 68% 29.98 in - SSE 2.3 mph - N/A   Clear